Location: Los Gatos B&B
(42.6926°N, 77.0646°W)
Time: 13:35:41
(UTC-04:00)

Amateur Radio Satellites - All Passes

Search period start: 21 October 2017 13:05
Search period end: 22 October 2017 13:05
Location: Los Gatos B&B, 42.6926°N, 77.0646°W

Satellite Date Start Highest point End Downlink Frequencies (MHz)
Time Altitude Azimuth
BEESAT 3 21 Oct 13:07:43 13:11:33 44° 308° (NW) 13:15:27 437.485
AO-85 21 Oct 13:14:36 13:18:14 41° 117° (ESE) 13:21:59 145.980
VELOX 1 21 Oct 13:16:39 13:20:35 30° 97° (E) 13:24:31 145.980
AO-7 21 Oct 13:17:56 13:22:05 15° 44° (NE) 13:26:14 .
ISS 21 Oct 13:21:35 13:23:49 17° 357° (N) 13:26:04 437.550
M-CUBED/EXP-1 PRIME 21 Oct 13:30:01 13:33:21 62° 70° (ENE) 13:36:36 437.505
ESTCUBE 1 21 Oct 13:32:06 13:36:05 32° 291° (WNW) 13:40:03 437.505/2401.250
EO-79 21 Oct 13:39:53 13:41:29 12° 270° (W) 13:43:06 145.935-145.965
POLYITAN 1 21 Oct 13:45:50 13:46:37 10° 271° (W) 13:47:24 437.675
SPROUT 21 Oct 13:59:04 14:03:20 60° 287° (WNW) 14:07:33 437.525
Oscar 19 21 Oct 14:01:07 14:06:16 72° 257° (WSW) 14:11:26 437.125/150
BUGSAT 1 21 Oct 14:18:42 14:21:49 20° 267° (W) 14:24:59 437.445
DX 1 21 Oct 14:19:14 14:23:15 34° 98° (E) 14:27:15 434.975-435.025
nSIGHT-1 21 Oct 14:22:37 14:25:02 19° 12° (NNE) 14:27:25 .
50 SAT 21 Oct 14:24:22 14:27:35 48° 100° (E) 14:30:47 437.505
BEESAT 2 21 Oct 14:31:58 14:35:12 23° 315° (NW) 14:38:28 435.950
ITAMSAT 1 21 Oct 14:38:13 14:41:44 19° 61° (ENE) 14:45:15 435.822/435.867
UKube-1 21 Oct 14:40:48 14:44:51 37° 99° (E) 14:48:51 .
Gurwin Techsat 1B 21 Oct 14:41:59 14:47:02 45° 261° (W) 14:52:08 435.225
SO-50 21 Oct 14:42:37 14:46:26 25° 44° (NE) 14:50:16 436.795
VELOX 1 21 Oct 14:53:13 14:56:55 26° 293° (WNW) 15:00:36 145.980
AO-85 21 Oct 14:55:49 14:58:48 21° 317° (NW) 15:01:53 145.980
ISS 21 Oct 14:58:21 15:01:06 24° 18° (NNE) 15:03:52 437.550
AO-7 21 Oct 15:05:05 15:13:11 60° 65° (ENE) 15:21:17 .
MOZHAYETS 4 21 Oct 15:35:20 15:38:54 22° 93° (E) 15:42:28
PCSat 21 Oct 15:40:36 15:43:03 13° 35° (NE) 15:45:30 145.827
DX 1 21 Oct 15:55:48 15:59:14 23° 294° (WNW) 16:02:40 434.975-435.025
nSIGHT-1 21 Oct 15:58:36 16:01:47 61° 31° (NNE) 16:04:57 .
ITUPSAT 1 21 Oct 16:15:29 16:20:08 48° 100° (E) 16:24:45 437.325
ITAMSAT 1 21 Oct 16:15:33 16:20:41 62° 258° (WSW) 16:25:52 435.822/435.867
UKube-1 21 Oct 16:17:21 16:20:37 21° 295° (WNW) 16:23:51 .
SO-50 21 Oct 16:22:39 16:27:06 48° 242° (WSW) 16:31:35 436.795
BEESAT 21 Oct 16:30:05 16:34:52 70° 103° (ESE) 16:39:36 436.000
DOVE 4 21 Oct 16:33:28 16:36:43 22° 66° (ENE) 16:40:06 437.250
ISS 21 Oct 16:34:35 16:37:50 73° 217° (SW) 16:41:06 437.550
CUTE-I 21 Oct 16:57:33 16:59:46 13° 57° (ENE) 17:02:00 437.470
AO-7 21 Oct 16:59:10 17:06:20 32° 264° (W) 17:13:32 .
MOZHAYETS 4 21 Oct 17:11:57 17:16:10 37° 290° (WNW) 17:20:20
PCSat 21 Oct 17:22:15 17:27:38 59° 56° (NE) 17:32:58 145.827
XW-2C 21 Oct 17:25:19 17:27:47 17° 66° (ENE) 17:30:16 145.795 - 145.815
CUBESAT XI-V 21 Oct 17:26:07 17:30:43 71° 101° (E) 17:35:18 437.345
HO-68 21 Oct 17:31:28 17:35:49 17° 52° (NE) 17:40:10 435.675
nSIGHT-1 21 Oct 17:35:39 17:37:45 16° 227° (SW) 17:39:50 .
ITUPSAT 1 21 Oct 17:54:08 17:57:36 20° 297° (WNW) 18:01:03 437.325
KAITUO 1B 21 Oct 18:03:52 18:07:13 33° 71° (ENE) 18:10:36 145.475/437.950
XW-2F 21 Oct 18:07:40 18:11:18 48° 74° (ENE) 18:14:57 145.980 - 146.000
BEESAT 21 Oct 18:09:26 18:12:03 15° 300° (WNW) 18:14:39 436.000
DOVE 4 21 Oct 18:10:25 18:14:13 33° 264° (W) 18:18:11 437.250
LilacSat-2 21 Oct 18:15:32 18:19:21 71° 75° (ENE) 18:23:09 437.200
NUDT-PHONESAT 21 Oct 18:15:36 18:19:09 44° 73° (ENE) 18:22:41 437.300
XW-2D 21 Oct 18:20:58 18:24:46 80° 76° (ENE) 18:28:33 145.860 - 145.880
CUBEBUG 2 21 Oct 18:22:17 18:24:22 13° 60° (ENE) 18:26:28 437.445
KKS-1 21 Oct 18:29:04 18:33:35 90° 282° (WNW) 18:38:05 437.445
CUTE-I 21 Oct 18:33:39 18:38:58 85° 75° (ENE) 18:44:21 437.470
XW-2B 21 Oct 18:34:29 18:38:16 73° 258° (WSW) 18:42:05 145.730 - 145.750
CUTE 1.7 + AOD 2 21 Oct 18:42:07 18:45:44 28° 69° (ENE) 18:49:22 437.475
SEEDS 21 Oct 18:47:13 18:50:17 20° 66° (ENE) 18:53:21 437.485
UWE-3 21 Oct 18:56:34 18:59:28 17° 63° (ENE) 19:02:23 435.000/436.395/437.385
STARS 21 Oct 18:57:59 19:02:27 76° 103° (ESE) 19:06:52 437.465
XW-2C 21 Oct 18:58:10 19:01:42 35° 263° (W) 19:05:13 145.795 - 145.815
CUBESAT XI-V 21 Oct 19:05:18 19:07:30 13° 299° (WNW) 19:09:41 437.345
PCSat 21 Oct 19:06:40 19:10:33 20° 254° (WSW) 19:14:24 145.827
AAUSAT CUBESAT 2 21 Oct 19:07:44 19:10:04 15° 64° (ENE) 19:12:26 437.432
HO-68 21 Oct 19:15:17 19:22:27 81° 72° (ENE) 19:29:40 435.675
XW-2A 21 Oct 19:28:06 19:31:04 28° 71° (ENE) 19:34:03 145.665 - 145.685
KAITUO 1B 21 Oct 19:38:52 19:41:18 17° 267° (W) 19:43:44 145.475/437.950
AO-73 21 Oct 19:43:23 19:46:58 23° 67° (ENE) 19:50:32 145.935
XW-2F 21 Oct 19:44:12 19:45:40 12° 269° (W) 19:47:08 145.980 - 146.000
YUBILEINY 21 Oct 19:46:26 19:54:00 31° 68° (ENE) 20:01:31 435.215
BEESAT 3 21 Oct 19:46:51 19:49:29 17° 41° (NE) 19:52:05 437.485
NUDT-PHONESAT 21 Oct 19:51:35 19:53:14 12° 269° (W) 19:54:51 437.300
CUBEBUG 2 21 Oct 19:55:36 20:00:16 79° 257° (WSW) 20:05:04 437.445
ZACube-1 21 Oct 20:05:26 20:09:45 42° 71° (ENE) 20:14:05 437.345
KKS-1 21 Oct 20:08:41 20:09:24 10° 301° (WNW) 20:10:08 437.445
FO-29 21 Oct 20:09:58 20:10:57 10° 85° (E) 20:11:57 435.910
CUTE-I 21 Oct 20:17:38 20:19:41 12° 272° (W) 20:21:44 437.470
CUTE 1.7 + AOD 2 21 Oct 20:18:01 20:21:32 25° 265° (W) 20:25:03 437.475
SEEDS 21 Oct 20:21:53 20:25:43 35° 263° (W) 20:29:35 437.485
STRAND 1 21 Oct 20:27:16 20:32:23 57° 101° (E) 20:37:26 437.568
O/OREOS (USA 219) 21 Oct 20:30:26 20:34:39 39° 106° (ESE) 20:38:56 437.305
UWE-3 21 Oct 20:30:51 20:35:26 58° 260° (W) 20:40:04 435.000/436.395/437.385
STARS 21 Oct 20:36:25 20:38:09 12° 300° (WNW) 20:39:53 437.465
Oscar 11 21 Oct 20:39:45 20:44:00 59° 74° (ENE) 20:48:16 .
AAUSAT CUBESAT 2 21 Oct 20:41:09 20:45:07 48° 261° (W) 20:49:07 437.432
Max Valier Satellite 21 Oct 20:58:33 21:00:23 13° 65° (ENE) 21:02:12 145.860
XW-2A 21 Oct 21:01:39 21:03:49 16° 267° (W) 21:05:59 145.665 - 145.685
HO-68 21 Oct 21:06:06 21:10:56 19° 270° (W) 21:15:47 435.675
BEESAT 2 21 Oct 21:10:18 21:13:59 32° 49° (NE) 21:17:35 435.950
AO-73 21 Oct 21:18:43 21:22:58 37° 263° (W) 21:27:13 145.935
BEESAT 3 21 Oct 21:23:29 21:27:24 59° 240° (WSW) 21:31:13 437.485
YUBILEINY 21 Oct 21:42:43 21:51:21 62° 268° (W) 21:59:59 435.215
ZACube-1 21 Oct 21:42:49 21:46:10 20° 268° (W) 21:49:33 437.345
AO-85 21 Oct 21:43:50 21:48:14 50° 52° (NE) 21:52:59 145.980
TIGRISAT 21 Oct 21:48:13 21:49:45 11° 88° (E) 21:51:17 435.000
FO-29 21 Oct 21:50:02 21:56:59 63° 101° (ESE) 22:04:34 435.910
DELFI C3 21 Oct 21:55:04 21:58:58 88° 69° (ENE) 22:02:54 145.870
STRAND 1 21 Oct 22:07:28 22:11:06 20° 298° (WNW) 22:14:43 437.568
O/OREOS (USA 219) 21 Oct 22:10:31 22:14:12 23° 304° (NW) 22:17:55 437.305
EO-88 21 Oct 22:16:44 22:20:23 84° 76° (ENE) 22:24:02 145.990 - 145.960
Oscar 11 21 Oct 22:18:31 22:20:30 13° 270° (W) 22:22:29 .
Max Valier Satellite 21 Oct 22:30:13 22:33:47 45° 261° (W) 22:37:24 145.860
BEESAT 2 21 Oct 22:48:14 22:51:35 25° 246° (WSW) 22:54:54 435.950
ESTCUBE 1 21 Oct 22:55:47 22:59:28 26° 67° (ENE) 23:03:09 437.505/2401.250
LO-87 21 Oct 23:01:33 23:04:50 34° 72° (ENE) 23:08:10 145.935 - 145.965
UNISAT 6 21 Oct 23:07:58 23:12:37 89° 106° (ESE) 23:17:07 437.425
SPROUT 21 Oct 23:20:03 23:21:26 11° 61° (ENE) 23:22:49 437.525
TIGRISAT 21 Oct 23:22:22 23:26:58 71° 285° (WNW) 23:31:26 435.000
AO-85 21 Oct 23:24:53 23:28:25 21° 247° (WSW) 23:32:07 145.980
FO-29 21 Oct 23:35:54 23:41:37 29° 297° (WNW) 23:47:46 435.910
PRISM 21 Oct 23:44:02 23:48:11 87° 284° (WNW) 23:52:20 437.425
YUBILEINY 21 Oct 23:44:24 23:46:13 11° 289° (WNW) 23:48:01 435.215
POLYITAN 1 21 Oct 23:52:42 23:53:43 11° 89° (E) 23:54:45 437.675
AIST 2D 22 Oct 00:00:40 00:03:53 35° 98° (E) 00:07:05 435.315
QB50P2 22 Oct 00:11:15 00:14:25 20° 93° (E) 00:17:34 145.880/145.840
NANOSAT C BR1 22 Oct 00:13:06 00:15:52 17° 92° (E) 00:18:36 145.865
VELOX 1 22 Oct 00:14:30 00:18:17 30° 68° (ENE) 00:22:07 145.980
RS-15 22 Oct 00:21:13 00:32:45 51° 110° (ESE) 00:44:19 29.354- 29.394
DUCHIFAT 1 22 Oct 00:22:43 00:25:42 19° 93° (E) 00:28:41 145.980
ESTCUBE 1 22 Oct 00:32:07 00:36:07 32° 263° (W) 00:40:09 437.505/2401.250
LO-87 22 Oct 00:36:16 00:38:22 15° 268° (W) 00:40:29 145.935 - 145.965
UNISAT 6 22 Oct 00:47:25 00:48:32 11° 301° (WNW) 00:49:39 437.425
SPROUT 22 Oct 00:52:25 00:56:42 75° 259° (WSW) 01:01:00 437.525
50 SAT 22 Oct 00:54:10 00:56:25 18° 68° (ENE) 00:58:40 437.505
DX 1 22 Oct 01:15:19 01:19:12 33° 69° (ENE) 01:23:06 434.975-435.025
EO-79 22 Oct 01:20:27 01:24:43 77° 286° (WNW) 01:28:57 145.935-145.965
POLYITAN 1 22 Oct 01:25:42 01:29:57 68° 286° (WNW) 01:34:09 437.675
AIST 2D 22 Oct 01:34:53 01:36:45 14° 294° (WNW) 01:38:37 435.315
UKube-1 22 Oct 01:35:45 01:39:39 35° 69° (ENE) 01:43:33 .
QB50P2 22 Oct 01:46:23 01:50:18 36° 290° (WNW) 01:54:12 145.880/145.840
NANOSAT C BR1 22 Oct 01:47:44 01:51:46 43° 289° (WNW) 01:55:46 145.865
VELOX 1 22 Oct 01:51:03 01:54:42 26° 265° (W) 01:58:24 145.980
DUCHIFAT 1 22 Oct 01:57:34 02:01:30 38° 290° (WNW) 02:05:25 145.980
BUGSAT 1 22 Oct 01:58:14 02:02:24 54° 100° (E) 02:06:29 437.445
BEESAT 22 Oct 02:03:17 02:04:38 11° 58° (ENE) 02:06:00 436.000
Oscar 19 22 Oct 02:12:03 02:16:48 37° 97° (E) 02:21:30 437.125/150
50 SAT 22 Oct 02:25:52 02:28:34 24° 264° (W) 02:31:16 437.505
NO-84 22 Oct 02:26:39 02:30:14 26° 128° (SE) 02:33:50 435.350 FM
RS-15 22 Oct 02:33:07 02:45:12 57° 314° (NW) 02:57:15 29.354- 29.394
MOZHAYETS 4 22 Oct 02:37:48 02:41:31 24° 66° (ENE) 02:45:15
M-CUBED/EXP-1 PRIME 22 Oct 02:40:42 02:44:07 38° 105° (ESE) 02:47:44 437.505
DX 1 22 Oct 02:52:00 02:55:25 23° 265° (W) 02:58:52 434.975-435.025
Gurwin Techsat 1B 22 Oct 02:57:00 03:02:20 68° 102° (ESE) 03:07:37 435.225
AO-7 22 Oct 03:07:43 03:12:33 16° 89° (E) 03:17:22 .
UKube-1 22 Oct 03:12:26 03:15:44 21° 266° (W) 03:19:03 .
ITUPSAT 1 22 Oct 03:22:36 03:27:20 62° 73° (ENE) 03:32:06 437.325
BUGSAT 1 22 Oct 03:34:57 03:37:17 15° 297° (WNW) 03:39:36 437.445
BEESAT 22 Oct 03:36:50 03:41:37 87° 78° (ENE) 03:46:27 436.000
Oscar 19 22 Oct 03:51:38 03:55:57 28° 295° (WNW) 04:00:16 437.125/150
KKS-1 22 Oct 03:55:28 03:56:02 10° 59° (ENE) 03:56:36 437.445
NO-84 22 Oct 04:03:15 04:07:28 52° 325° (NW) 04:11:37 435.350 FM
MOZHAYETS 4 22 Oct 04:14:13 04:18:28 36° 263° (W) 04:22:45
M-CUBED/EXP-1 PRIME 22 Oct 04:16:03 04:18:19 16° 298° (WNW) 04:20:41 437.505
ITAMSAT 1 22 Oct 04:27:36 04:32:36 43° 99° (E) 04:37:34 435.822/435.867
CUBESAT XI-V 22 Oct 04:29:43 04:34:20 74° 75° (ENE) 04:38:57 437.345
Gurwin Techsat 1B 22 Oct 04:38:16 04:41:42 18° 300° (WNW) 04:45:08 435.225
RS-15 22 Oct 04:51:09 05:01:10 27° 345° (NNW) 05:11:00 29.354- 29.394
AO-7 22 Oct 04:58:06 05:06:28 82° 108° (ESE) 05:14:48 .
O/OREOS (USA 219) 22 Oct 05:02:12 05:03:49 12° 48° (NE) 05:05:25 437.305
ITUPSAT 1 22 Oct 05:02:51 05:05:34 15° 269° (W) 05:08:16 437.325
KKS-1 22 Oct 05:27:25 05:31:51 90° 265° (W) 05:36:20 437.445
NO-84 22 Oct 05:42:39 05:45:39 18° 344° (NNW) 05:48:34 435.350 FM
STARS 22 Oct 05:54:50 05:59:12 73° 74° (ENE) 06:03:36 437.465
DOVE 4 22 Oct 06:06:48 06:11:47 59° 101° (E) 06:16:56 437.250
ITAMSAT 1 22 Oct 06:07:33 06:11:48 25° 296° (WNW) 06:16:01 435.822/435.867
STRAND 1 22 Oct 06:08:27 06:10:30 12° 57° (ENE) 06:12:31 437.568
XW-2B 22 Oct 06:08:34 06:09:20 10° 90° (E) 06:10:07 145.730 - 145.750
CUBESAT XI-V 22 Oct 06:10:48 06:12:12 11° 271° (W) 06:13:36 437.345
XW-2C 22 Oct 06:30:07 06:32:57 20° 94° (E) 06:35:46 145.795 - 145.815
SO-50 22 Oct 06:37:20 06:41:34 44° 118° (ESE) 06:45:52 436.795
O/OREOS (USA 219) 22 Oct 06:39:20 06:43:59 86° 69° (ENE) 06:48:33 437.305
HO-68 22 Oct 06:44:43 06:48:09 14° 87° (E) 06:51:32 435.675
CUTE-I 22 Oct 06:50:12 06:54:59 32° 96° (E) 06:59:45 437.470
AO-7 22 Oct 06:52:00 06:58:21 25° 308° (NW) 07:04:42 .
KAITUO 1B 22 Oct 07:07:32 07:11:02 41° 98° (E) 07:14:32 145.475/437.950
RS-15 22 Oct 07:08:45 07:18:57 29° 20° (NNE) 07:28:45 29.354- 29.394
XW-2F 22 Oct 07:12:36 07:16:18 64° 101° (E) 07:19:58 145.980 - 146.000
NUDT-PHONESAT 22 Oct 07:18:22 07:21:59 55° 100° (E) 07:25:33 437.300
NO-84 22 Oct 07:21:56 07:24:21 15° 6° (N) 07:26:41 435.350 FM
LilacSat-2 22 Oct 07:21:57 07:25:44 83° 283° (WNW) 07:29:30 437.200
XW-2D 22 Oct 07:26:35 07:30:19 76° 285° (WNW) 07:34:02 145.860 - 145.880
STARS 22 Oct 07:35:01 07:36:01 11° 271° (W) 07:37:02 437.465
XW-2B 22 Oct 07:40:11 07:43:50 53° 286° (WNW) 07:47:28 145.730 - 145.750
STRAND 1 22 Oct 07:43:43 07:48:51 87° 76° (ENE) 07:54:03 437.568
DOVE 4 22 Oct 07:45:34 07:49:01 19° 296° (WNW) 07:52:33 437.250
CUBEBUG 2 22 Oct 07:46:33 07:50:05 22° 92° (E) 07:53:32 437.445
CUTE 1.7 + AOD 2 22 Oct 08:01:04 08:05:09 50° 99° (E) 08:09:14 437.475
XW-2C 22 Oct 08:03:55 08:07:07 27° 290° (WNW) 08:10:18 145.795 - 145.815
SEEDS 22 Oct 08:04:29 08:08:16 33° 97° (E) 08:12:03 437.485
PCSat 22 Oct 08:04:32 08:09:40 46° 113° (ESE) 08:14:51 145.827
FO-29 22 Oct 08:05:14 08:09:29 25° 62° (ENE) 08:14:00 435.910
SO-50 22 Oct 08:18:30 08:22:12 25° 316° (NW) 08:25:57 436.795
UWE-3 22 Oct 08:20:11 08:24:01 27° 94° (E) 08:27:43 435.000/436.395/437.385
XW-2A 22 Oct 08:21:15 08:24:06 25° 96° (E) 08:26:55 145.665 - 145.685
AAUSAT CUBESAT 2 22 Oct 08:22:35 08:25:54 23° 94° (E) 08:29:13 437.432
HO-68 22 Oct 08:29:40 08:36:55 80° 105° (ESE) 08:44:07 435.675
CUTE-I 22 Oct 08:30:10 08:35:00 35° 293° (WNW) 08:39:50 437.470
UNISAT 6 22 Oct 08:34:53 08:35:28 10° 58° (ENE) 08:36:04 437.425
nSIGHT-1 22 Oct 08:39:12 08:40:04 11° 130° (SE) 08:40:55 .
KAITUO 1B 22 Oct 08:42:42 08:44:39 14° 295° (WNW) 08:46:37 145.475/437.950
TIGRISAT 22 Oct 08:47:27 08:49:33 13° 60° (ENE) 08:51:39 435.000
YUBILEINY 22 Oct 08:48:59 08:56:24 33° 84° (E) 09:03:51 435.215
NUDT-PHONESAT 22 Oct 08:54:23 08:55:21 11° 297° (WNW) 08:56:19 437.300
NO-84 22 Oct 08:59:16 09:02:50 30° 27° (NNE) 09:06:08 435.350 FM
AO-73 22 Oct 09:05:46 09:09:50 38° 97° (E) 09:13:47 145.935
ISS 22 Oct 09:15:20 09:17:54 22° 135° (SE) 09:20:28 437.550
RS-15 22 Oct 09:22:17 09:34:17 67° 50° (NE) 09:45:33 29.354- 29.394
CUBEBUG 2 22 Oct 09:22:32 09:26:49 38° 290° (WNW) 09:30:59 437.445
STRAND 1 22 Oct 09:27:11 09:28:42 11° 272° (W) 09:30:13 437.568
ZACube-1 22 Oct 09:28:55 09:33:19 81° 102° (ESE) 09:37:34 437.345
DELFI C3 22 Oct 09:33:41 09:34:20 10° 89° (E) 09:35:00 145.870
CUTE 1.7 + AOD 2 22 Oct 09:38:07 09:40:34 15° 296° (WNW) 09:43:03 437.475
SEEDS 22 Oct 09:40:34 09:43:45 22° 293° (WNW) 09:46:56 437.485
PCSat 22 Oct 09:48:32 09:53:15 29° 312° (NW) 09:57:59 145.827
FO-29 22 Oct 09:49:16 09:54:16 45° 262° (W) 09:59:41 435.910
XW-2A 22 Oct 09:54:23 09:56:37 17° 292° (WNW) 09:58:50 145.665 - 145.685
UWE-3 22 Oct 09:56:33 10:00:25 29° 292° (WNW) 10:04:11 435.000/436.395/437.385
AAUSAT CUBESAT 2 22 Oct 09:57:45 10:01:20 29° 291° (WNW) 10:04:56 437.432
Max Valier Satellite 22 Oct 10:00:18 10:02:22 14° 92° (E) 10:04:26 145.860
Oscar 11 22 Oct 10:02:00 10:06:17 73° 286° (WNW) 10:10:33 .
UNISAT 6 22 Oct 10:06:41 10:11:21 83° 75° (ENE) 10:16:06 437.425
nSIGHT-1 22 Oct 10:12:40 10:15:52 89° 332° (NNW) 10:19:05 .
HO-68 22 Oct 10:18:36 10:23:52 22° 304° (NW) 10:29:06 435.675
TIGRISAT 22 Oct 10:20:54 10:25:34 78° 258° (WSW) 10:30:18 435.000
PRISM 22 Oct 10:33:30 10:37:32 71° 74° (ENE) 10:41:35 437.425
AIST 2D 22 Oct 10:36:23 10:38:30 15° 67° (ENE) 10:40:37 435.315
NO-84 22 Oct 10:36:40 10:40:21 44° 227° (SW) 10:43:43 435.350 FM
AO-73 22 Oct 10:42:38 10:45:47 20° 295° (WNW) 10:48:52 145.935
YUBILEINY 22 Oct 10:44:16 10:52:44 56° 284° (WNW) 11:01:18 435.215
POLYITAN 1 22 Oct 10:46:59 10:47:28 10° 60° (ENE) 10:47:57 437.675
ISS 22 Oct 10:51:00 10:54:10 49° 332° (NNW) 10:57:21 437.550
QB50P2 22 Oct 11:04:48 11:07:39 18° 64° (ENE) 11:10:32 145.880/145.840
DELFI C3 22 Oct 11:05:32 11:09:27 61° 286° (WNW) 11:13:23 145.870
NANOSAT C BR1 22 Oct 11:06:17 11:08:42 15° 63° (ENE) 11:11:06 145.865
ZACube-1 22 Oct 11:07:52 11:08:53 11° 300° (WNW) 11:09:52 437.345
BEESAT 3 22 Oct 11:14:20 11:17:02 18° 111° (ESE) 11:19:45 437.485
DUCHIFAT 1 22 Oct 11:15:30 11:18:09 16° 64° (ENE) 11:20:47 145.980
EO-88 22 Oct 11:17:55 11:21:33 81° 284° (WNW) 11:25:10 145.990 - 145.960
Max Valier Satellite 22 Oct 11:32:56 11:36:21 36° 288° (WNW) 11:39:43 145.860
RS-15 22 Oct 11:35:35 11:45:57 38° 254° (WSW) 11:55:51 29.354- 29.394
UNISAT 6 22 Oct 11:47:55 11:48:39 10° 273° (W) 11:49:23 437.425
nSIGHT-1 22 Oct 11:49:55 11:52:29 22° 345° (NNW) 11:55:03 .
LO-87 22 Oct 12:00:31 12:03:57 38° 98° (E) 12:07:20 145.935 - 145.965
AIST 2D 22 Oct 12:08:13 12:11:24 32° 263° (W) 12:14:36 435.315
EO-79 22 Oct 12:12:54 12:17:10 84° 73° (ENE) 12:21:28 145.935-145.965
POLYITAN 1 22 Oct 12:18:15 12:22:33 85° 259° (W) 12:26:53 437.675
ESTCUBE 1 22 Oct 12:23:03 12:27:25 48° 99° (E) 12:31:44 437.505/2401.250
ISS 22 Oct 12:28:50 12:31:12 18° 351° (N) 12:33:35 437.550
SPROUT 22 Oct 12:38:10 12:41:02 17° 92° (E) 12:43:54 437.525
BEESAT 2 22 Oct 12:38:58 12:42:44 41° 117° (ESE) 12:46:34 435.950
QB50P2 22 Oct 12:39:00 12:43:05 44° 261° (W) 12:47:13 145.880/145.840
NANOSAT C BR1 22 Oct 12:39:47 12:43:56 54° 260° (W) 12:48:08 145.865
Gurwin Techsat 1B 22 Oct 12:41:34 12:44:49 17° 60° (ENE) 12:48:06 435.225
BUGSAT 1 22 Oct 12:48:10 12:52:07 41° 71° (ENE) 12:56:06 437.445
DUCHIFAT 1 22 Oct 12:49:18 12:53:24 48° 261° (W) 12:57:33 145.980
YUBILEINY 22 Oct 12:49:51 12:51:54 11° 308° (NW) 12:53:59 435.215
BEESAT 3 22 Oct 12:50:23 12:54:15 44° 309° (NW) 12:58:08 437.485
